Location: *
(47.3011°N, 6.7436°E)
Time: 18:50:42
(UTC+00:00)

Daily predictions for brighter satellites

Satellite Brightness Start Highest point End
(mag) Time Altitude Azimuth Time Altitude Azimuth Time Altitude Azimuth
COBE Rocket 4.3 17:05:01 10° NNE 17:10:00 46° E 17:14:53 10° S
Unknown 3.9 17:06:01 10° WSW 17:10:03 66° NNW 17:14:06 10° ENE
Unknown 3.7 17:08:06 10° WSW 17:12:15 81° NNW 17:16:25 10° ENE
H-2A R/B 3.0 17:09:06 10° S 17:12:59 78° WSW 17:16:56 10° NNW
Cosmos 1821 Rocket 4.0 17:07:16 10° N 17:13:22 68° E 17:19:29 10° SSE
Unknown 3.7 17:09:49 10° WSW 17:13:58 79° NNW 17:18:07 10° ENE
Gbstr 26 Del rocket 4.2 17:08:30 10° WNW 17:14:08 60° N 17:21:07 10° E
Unknown 4.4 17:10:41 10° W 17:14:11 37° N 17:17:42 10° ENE
Unknown 3.7 17:11:29 10° WSW 17:15:37 77° NNW 17:19:47 10° ENE
Unknown 3.8 17:13:06 10° WSW 17:17:15 76° NNW 17:21:24 10° ENE
Cosmos 2082 Rocket 3.5 17:13:49 10° N 17:18:06 21° NE 17:22:21 10° E
BREEZE M DEB (TANK) 1.5 17:16:22 10° WNW 17:18:29 76° NNE 17:22:25 10° ESE
Unknown 3.8 17:14:47 10° WSW 17:18:56 74° NNW 17:23:05 10° ENE
COSMO-SKYMED 1 3.0 17:15:58 10° NNE 17:20:06 41° E 17:24:13 10° S
Cosmos 1703 4.1 17:17:18 10° N 17:20:48 29° ENE 17:24:14 10° SE
Unknown 3.8 17:18:09 10° WSW 17:22:17 72° NNW 17:26:27 10° ENE
COSMOS 2406 3.5 17:17:29 10° NNW 17:23:07 51° ENE 17:28:43 10° SE
Nadezhda 3 Rocket 4.0 17:17:20 10° S 17:23:36 78° E 17:29:58 10° N
Starlink (trailer) 3.8 17:19:49 10° WSW 17:23:57 70° NNW 17:28:06 10° ENE
Cosmos 1934 Rocket 4.1 17:18:16 10° N 17:24:30 55° ENE 17:30:43 10° SSE
Unknown 3.8 17:21:29 10° WSW 17:25:37 69° NNW 17:29:45 10° ENE
CSL-04 Debris 4.4 17:20:26 10° SE 17:25:39 49° ENE 17:30:57 10° N
Unknown 4.4 17:23:22 10° W 17:27:00 39° NNW 17:30:38 10° ENE
Unknown 3.9 17:23:05 10° WSW 17:27:13 68° NNW 17:31:22 10° ENE
H-2A R/B 4.0 17:26:38 10° ENE 17:28:15 11° NE 17:29:53 10° NNE
Cosmos 1825 Rocket 3.8 17:24:00 10° NNW 17:28:22 76° W 17:32:45 10° S
Cosmos 1953 2.4 17:25:28 10° S 17:29:31 86° W 17:33:38 10° N
Abrixas rocket 4.2 17:27:58 10° S 17:29:34 13° SE 17:31:00 11° ESE
Cosmos 1953 Rocket 3.5 17:26:32 10° N 17:30:57 79° E 17:35:16 10° SSE
Unknown 4.4 17:29:40 10° W 17:33:24 41° NNW 17:36:57 11° ENE
Unknown 4.0 17:29:35 10° WSW 17:33:41 62° NNW 17:37:40 11° ENE
YAOGAN 6 2.7 17:30:10 10° SSE 17:33:46 56° ENE 17:37:21 10° N
Unknown 4.0 17:29:49 10° WSW 17:33:56 63° NNW 17:37:54 11° ENE
Unknown 4.0 17:30:30 10° WSW 17:34:37 62° NNW 17:38:33 11° ENE
Unknown 3.3 17:33:11 10° NW 17:36:13 47° NNE 17:38:29 16° E
Unknown 4.0 17:34:27 10° WSW 17:38:32 60° NNW 17:42:18 12° ENE
Cosmos 1844 Rocket 2.9 17:33:16 10° SSW 17:38:55 80° WNW 17:44:37 10° NNE
Unknown 4.0 17:34:51 10° WSW 17:38:57 60° NNW 17:42:42 12° ENE
Meteor 1-11 4.4 17:35:04 10° N 17:40:40 51° ENE 17:46:18 10° SSE
Unknown 4.1 17:36:38 10° W 17:40:44 57° NNW 17:44:24 13° ENE
FengYun 1-2 T 4.2 17:35:06 10° SSE 17:40:44 81° ENE 17:46:23 10° NNW
Unknown 4.1 17:39:58 10° W 17:44:03 56° NNW 17:47:35 13° ENE
Cosmos 1606 Rocket 3.8 17:39:45 10° SSW 17:44:08 73° W 17:48:31 10° N
SKYMED 3 4.5 17:39:48 10° NNE 17:44:10 73° ESE 17:48:29 10° S
Unknown 4.1 17:40:21 10° W 17:44:26 56° NNW 17:47:57 14° ENE
Unknown 4.1 17:41:32 10° W 17:45:38 56° NNW 17:49:06 14° ENE
Unknown 2.5 17:43:08 10° WNW 17:45:46 74° SSW 17:47:39 17° SE
Envisat 3.3 17:43:01 10° S 17:48:05 72° WSW 17:53:11 10° NNW
Unknown 4.1 17:44:42 10° W 17:48:46 55° NNW 17:52:07 15° ENE
Meteor 1-16 Rocket 4.1 17:43:41 10° S 17:49:15 77° E 17:54:40 10° NNE
BREEZE-M DEB (TANK) 3.6 17:45:40 10° SW 17:49:59 28° SSE 17:51:13 20° ESE
Unknown 4.2 17:48:12 10° W 17:52:16 52° NNW 17:55:27 16° NE
Unknown 4.2 17:49:52 10° W 17:53:56 52° NNW 17:57:03 16° NE
Cosmos 1908 3.5 17:50:25 10° SSE 17:54:09 46° E 17:57:54 10° NNE
Unknown 4.2 17:51:34 10° W 17:55:37 51° NNW 17:58:39 17° NE
Cosmos 1461 3.6 17:52:25 10° NNW 17:56:09 34° NE 17:58:03 22° E
Unknown 4.3 17:53:14 10° W 17:57:17 50° NNW 18:00:15 17° NE
ASTEX 1 3.5 17:53:32 10° N 17:58:31 84° W 18:03:29 10° S
Lacrosse 5 rocket 3.1 17:55:13 10° WNW 17:58:31 29° SW 18:01:57 10° SSE
FALCON 9 DEB 4.1 17:55:20 10° WNW 17:58:34 35° NNE 18:00:09 23° ENE
Cosmos 1356 3.3 17:56:04 10° S 17:59:28 77° ESE 18:02:56 10° NNE
Cosmos 2278 Rocket 2.6 17:55:03 10° S 18:00:19 41° ESE 18:05:38 10° NE
Cosmos 1939 Rocket 3.1 17:56:44 10° SE 18:00:32 47° ENE 18:04:26 10° N
Unknown 4.3 17:56:36 10° W 18:00:38 49° NNW 18:03:27 18° NE
Unknown 4.3 17:58:19 10° W 18:02:21 48° NNW 18:05:06 19° NE
Cosmos 1812 Rocket 4.3 17:59:22 10° SSE 18:03:12 29° E 18:07:03 10° NNE
Unknown 3.9 18:00:36 10° NW 18:03:49 38° NNE 18:05:05 27° ENE
Unknown 4.3 17:59:58 10° W 18:03:59 48° NNW 18:06:39 19° NE
Cosmos 1844 4.2 17:59:21 10° SW 18:05:02 65° WNW 18:10:49 10° NNE
Unknown 4.2 18:02:08 10° WNW 18:05:25 35° N 18:06:45 25° NE
Unknown 4.3 18:01:34 10° W 18:05:36 48° NNW 18:08:13 20° NE
ATLAS 5 CENTAUR R/B 3.1 18:01:56 10° WSW 18:05:58 35° NW 18:10:32 10° NNE
Unknown 4.3 18:02:01 10° W 18:06:01 47° NNW 18:08:37 20° NE
SKYMED 2 4.0 18:03:54 10° N 18:08:13 64° WNW 18:12:30 10° SSW
Unknown 4.3 18:04:44 10° W 18:08:46 47° NNW 18:11:14 21° NE
Cosmos 489 Rocket 4.4 18:03:14 10° SSW 18:09:25 76° ESE 18:15:38 10° NNE
Cosmos 1328 4.1 18:05:31 10° NNW 18:09:30 70° W 18:13:25 10° S
Unknown 4.4 18:08:08 10° W 18:12:09 46° NNW 18:14:29 22° NE
YAOGAN 1 2.9 18:08:26 10° S 18:12:44 67° WSW 18:17:04 10° NNW
Cosmos 1076 Rocket 4.1 18:09:27 10° N 18:13:30 35° ENE 18:14:33 30° ESE
Unknown 4.4 18:09:47 10° W 18:13:48 46° NNW 18:16:03 23° NE
Unknown 4.4 18:11:44 10° W 18:15:43 44° NNW 18:17:53 23° NE
Unknown 4.4 18:13:06 10° W 18:17:06 45° NNW 18:19:12 24° NE
Falcon 9 debris 3.8 18:14:59 10° WNW 18:18:18 42° NNE 18:18:58 36° NE
Unknown 4.4 18:14:47 10° W 18:18:46 44° NNW 18:20:49 25° NE
Cosmos 292 Rocket 3.8 18:15:19 10° SSW 18:20:03 81° WNW 18:24:51 10° NNE
Unknown 4.5 18:18:11 10° W 18:22:09 43° NNW 18:24:02 26° NE
CSL-04 Rocket 4.3 18:17:31 10° S 18:23:00 60° WSW 18:28:27 10° NNW
CZ-4 R/B 3.0 18:19:40 10° SSW 18:23:34 38° W 18:27:33 10° NNW
Unknown 4.5 18:19:52 10° W 18:23:50 43° NNW 18:25:39 27° NE
USA 238 DEB 4.0 18:18:47 10° S 18:24:59 42° ESE 18:28:53 22° ENE
USA 238 4.0 18:18:55 10° S 18:25:06 42° ESE 18:28:55 23° ENE
Unknown 4.5 18:21:33 10° W 18:25:31 43° NNW 18:27:15 27° NE
Unknown 4.5 18:23:14 10° W 18:27:12 42° NNW 18:28:51 28° NE
Unknown 3.7 18:25:06 10° WNW 18:28:29 43° NNE 18:28:48 41° NNE
Shenzhou-11 Module 3.2 18:27:39 10° WSW 18:29:46 29° SSW 18:29:46 29° SSW
Ariane Rocket 2.9 18:25:32 10° SSE 18:30:38 85° ENE 18:35:47 10° NNW
NOAA 11 4.2 18:25:21 10° SSE 18:30:48 84° WSW 18:36:17 10° NNW
Cosmos 1726 3.5 18:27:32 10° SSW 18:31:00 40° WNW 18:34:29 10° N
Lacrosse 5 2.0 18:26:16 10° NW 18:31:16 56° NNE 18:32:48 40° E
ARGOS 3.8 18:38:25 35° ENE 18:38:32 35° ENE 18:43:25 10° N
CZ-2D R/B 3.9 18:34:46 10° S 18:38:33 57° W 18:42:23 10° NNW
Cosmos 1833 Rocket 2.6 18:35:11 10° NNW 18:40:51 89° WSW 18:44:18 25° SSE
SPOT 3 Rocket 3.7 18:48:34 50° E 18:48:55 51° ENE 18:53:57 10° N
NOSS 3-2 (A) 3.5 18:45:11 10° SSW 18:50:41 49° ESE 18:51:20 47° E
HJ-1C 3.8 18:51:33 60° WSW 18:51:36 61° W 18:54:57 10° NNW
Unknown 4.4 18:49:18 10° WNW 18:52:29 36° N 18:52:29 36° N
NOSS 3-3 (A) 4.4 18:48:56 10° NW 18:56:22 76° NE 18:59:43 39° SE
Cosmos 1459 Rocket 3.9 18:50:12 10° N 18:56:24 68° E 18:58:57 37° SSE
NOSS 3-3 (C) 4.4 18:49:01 10° NW 18:56:28 76° NE 18:59:47 40° SE
Cosmos 2058 3.4 18:54:55 10° N 18:58:10 50° N 18:58:10 50° N
Gbstr 26 Del rocket 4.1 18:55:26 10° WNW 19:01:46 81° SSW 19:04:05 47° SE
Cosmos 2082 Rocket 2.1 18:57:13 10° NNW 19:02:58 87° WSW 19:04:38 49° SSE
SJ 16-02 3.2 19:00:40 10° N 19:02:25 20° NNE 19:02:25 20° NNE
Resurs 01 Rocket 3.8 19:09:04 16° NNE 19:09:04 16° NNE 19:10:09 10° N
H-2A R/B 2.1 19:06:52 61° NE 19:06:52 61° NE 19:11:55 10° N
SJ-6B 4.5 19:08:58 25° N 19:08:58 25° N 19:10:36 10° N
Cosmos 1727 Rocket 4.2 19:02:11 10° SSW 19:08:19 68° W 19:14:30 10° N
Cosmos 1802 Rocket 3.9 19:09:57 10° N 19:16:26 79° E 19:17:48 58° SSE
Cosmos 2173 Rocket 3.9 19:13:24 10° N 19:19:43 83° W 19:22:02 41° S
In-Cosmos 22 Rocket 4.2 19:25:01 10° NNW 19:30:23 74° W 19:30:27 74° WSW
Cosmos 1898 Rocket 4.0 19:28:29 10° NNW 19:32:33 54° NNW 19:32:33 54° NNW
CZ-2C R/B 3.8 19:37:01 51° N 19:37:01 51° N 19:41:24 10° N
ADEOS Rocket 3.4 19:27:59 10° NNE 19:35:49 83° ESE 19:43:05 10° SSW
Cosmos 1725 Rocket 4.1 19:31:56 10° N 19:37:15 64° NNE 19:37:15 64° NNE
Cosmos 2278 Rocket 3.5 19:39:13 10° WSW 19:44:28 37° NW 19:49:45 10° NNE
ATLAS 5 CENTAUR R/B 4.3 19:49:25 10° NW 19:52:11 15° N 19:53:18 14° N
ATLAS CENTAUR R/B 4.3 19:54:20 10° NNW 19:55:01 12° N 19:55:01 12° N
Cosmos 2016 Rocket 4.4 19:57:14 10° NNW 20:03:18 58° W 20:03:18 58° W
Lacrosse 5 3.8 20:09:29 10° WNW 20:12:01 25° W 20:12:01 25° W
USA 238 DEB 4.3 20:09:15 10° WSW 20:15:49 53° NW 20:16:23 52° NNW
USA 238 4.2 20:09:21 10° WSW 20:15:56 53° NW 20:16:26 52° NNW
H-2A R/B 4.4 20:47:31 20° WNW 20:47:31 20° WNW 20:50:26 10° NW
